User: anonymous   Login
Location: Ostrava
(49.8330°N, 18.2830°E)
Time: 19:55:59
(UTC+02:00)
Language:

Cosmos 1766 - Orbit

View from above orbital plane
View from above orbital plane
View from above satellite
View from above satellite

Ground track
Ground track

The orbit data is extracted from the following two-line orbital elements,

1 16881U 86055A   15147.78623860  .00001587  00000-0  10055-3 0  9991
2 16881 082.5151 037.8440 0014137 132.3243 227.9186 15.08201386568095
Epoch (UTC): 27 May 2015 18:52:11
Eccentricity: 0.0014137
inclination: 82.5151°
perigee height: 532 km
apogee height: 551 km
right ascension of ascending node: 37.8440°
argument of perigee: 132.3243°
revolutions per day: 15.08201386
mean anomaly at epoch: 227.9186°
orbit number at epoch: 56809

The dashed part of the orbit path shows where the satellite is in the earth's shadow,  

DLR